Location: Altmatt
(47.1333°N, 8.7000°E)
Time: 07:51:21
(UTC+00:00)

IRIDIUM 114 - Pass Details

Date: 13 July 2020
Orbit: 776 x 779 km, 86.4° (Epoch: 04 August)

Event Time Altitude Azimuth Distance (km) Brightness Sun altitude
Exits shadow 22:25:28 36° 189° (S) 1,218 4.9 -19.6°
Maximum altitude 22:27:40 82° 274° (W) 792 4.3 -19.7°
Drops below altitude 10° 22:32:55 10° 2° (N) 2,340 7.9 -20.0°
Sets 22:35:17 0° 3° (N) 3,272 8.9 -20.1°
